Date,TemperatureHighF,TemperatureAvgF,TemperatureLowF,DewpointHighF,DewpointAvgF,DewpointLowF,HumidityHigh,HumidityAvg,HumidityLow,PressureMaxIn,PressureMinIn,WindSpeedMaxMPH,WindSpeedAvgMPH,GustSpeedMaxMPH,PrecipitationSumIn
2013-2-1,59.7,54.1,46.9,49.1,46.8,41.5,87,77,64,30.20,29.76,8,2,15,0.00
2013-2-2,56.8,50.5,45.0,50.0,44.5,36.1,91,80,69,29.79,29.32,10,5,15,0.05
2013-2-3,48.2,43.1,38.7,38.8,35.3,27.0,85,74,62,29.97,29.38,9,3,16,0.22
2013-2-4,51.3,42.8,35.1,34.3,27.3,9.5,75,57,21,30.17,29.97,10,2,15,0.00
2013-2-5,49.6,48.4,43.5,46.9,43.8,28.9,91,84,59,30.15,29.82,9,4,17,0.00
2013-2-6,50.9,46.8,41.7,45.9,36.5,30.6,90,68,50,29.82,29.53,9,3,18,0.20
2013-2-7,46.9,41.4,38.1,38.8,35.0,30.4,89,78,61,29.58,29.47,7,2,11,0.43
2013-2-8,47.3,39.9,34.7,31.3,28.5,26.1,79,64,47,29.76,29.58,10,4,15,0.00
2013-2-9,43.9,36.7,32.2,30.0,24.4,19.8,83,62,42,29.88,29.73,8,3,14,0.00
2013-2-10,43.2,36.3,29.1,26.1,18.4,6.3,70,50,22,29.97,29.85,8,2,12,0.00
2013-2-11,48.6,42.6,36.7,45.3,34.1,17.6,94,74,44,29.97,29.53,15,8,30,2.04
2013-2-12,51.1,44.8,41.2,42.6,39.4,36.9,90,82,66,29.73,29.55,6,1,12,0.22
2013-2-13,49.6,43.3,37.0,37.4,33.6,30.4,84,69,56,29.85,29.70,5,2,8,0.00
2013-2-14,52.0,45.4,37.2,36.0,33.9,30.9,80,65,49,30.00,29.82,6,2,11,0.00
2013-2-15,52.7,45.8,39.4,38.5,34.9,31.1,79,66,53,30.03,29.94,4,1,6,0.00
2013-2-16,54.3,47.8,42.3,39.4,36.7,33.6,79,66,48,30.09,30.00,4,1,6,0.00
2013-2-17,51.3,44.7,40.1,40.1,36.6,34.0,83,74,60,30.09,29.97,6,2,10,0.39
2013-2-18,48.0,43.7,38.3,41.0,36.6,32.2,83,76,69,30.03,29.94,4,1,6,0.00
2013-2-19,51.4,44.4,35.8,36.3,31.8,27.3,78,62,41,30.03,29.94,5,1,8,0.00
2013-2-20,51.8,45.0,38.5,36.9,33.4,29.3,73,64,51,30.03,29.91,4,1,7,0.00
2013-2-21,54.7,48.5,40.8,41.4,37.1,33.1,84,66,47,29.94,29.70,4,1,8,0.02
2013-2-22,50.9,48.4,45.7,46.9,43.3,39.7,93,83,70,29.70,29.47,11,4,19,0.13
2013-2-23,51.1,47.4,43.9,49.6,43.0,32.7,96,85,61,29.67,29.44,20,7,31,2.38
2013-2-24,44.4,41.0,36.5,38.7,32.7,28.0,85,73,55,29.94,29.64,9,3,14,0.07
2013-2-25,39.7,37.6,35.1,35.4,33.3,30.0,93,85,69,30.06,29.91,8,2,12,1.18
2013-2-26,50.4,43.1,37.8,39.0,35.8,32.9,85,76,64,30.15,30.00,6,0,8,0.00
2013-2-27,52.5,46.1,38.3,35.4,32.3,29.3,77,59,45,30.23,30.12,7,2,11,0.00
2013-2-28,57.2,50.4,43.7,39.6,36.6,31.8,69,60,48,30.23,30.15,4,2,10,0.00